Location: Bamobli
(6.6379°N, 10.9396°W)
Time: 15:02:26
(UTC+00:00)

SJ-12 - Pass Details

Date: 07 June 2020
Orbit: 570 x 584 km, 97.7° (Epoch: 04 July)

Event Time Altitude Azimuth Distance (km) Brightness Sun altitude
Rises 05:36:25 0° 8° (N) 2,792 7.9 -12.5°
Reaches altitude 10° 05:38:34 10° 6° (N) 1,895 7.0 -12.0°
Maximum altitude 05:42:40 73° 281° (WNW) 610 3.9 -11.1°
Drops below altitude 10° 05:46:46 10° 197° (SSW) 1,898 6.2 -10.2°
Enters shadow 05:48:48 - 195° (SSW) 2,745 7.0 -9.7°
